Location: Igloolik
(69.3800°N, 81.8000°W)
Time: 10:09:37
(UTC-05:00)

Amateur Radio Satellites - All Passes

Search period start: 30 July 2014 09:39
Search period end: 31 July 2014 09:39
Location: Igloolik, 69.3800°N, 81.8000°W

Satellite Date Start Highest point End Downlink Frequencies (MHz)
Time Altitude Azimuth
Sapphire 30 Jul 09:39:25 09:42:55 18° 245° (WSW) 09:46:26 437.095 MHz 1200 baud AX-25 AFSK
Hamsat 30 Jul 09:45:48 09:49:19 25° 325° (NW) 09:52:50 145.90 MHz
Uosat F 30 Jul 09:52:46 09:56:40 23° 352° (N) 10:00:34 435.120 FM
Oscar 16 30 Jul 09:54:06 09:58:37 32° 32° (NNE) 10:03:10 437.025 USB, Beacon 2401.1428
JAS-1B 30 Jul 09:56:02 10:05:12 46° 16° (NNE) 10:14:09 435.800 - 435.900 CW/SSB
FUNcube-1 30 Jul 10:03:19 10:06:38 22° 87° (E) 10:09:57 145.950 - 145.970 MHz USB
AO-7 30 Jul 10:07:36 10:15:29 48° 353° (N) 10:23:20 29.400 - 29.500 MHz
PCSat 30 Jul 10:13:31 10:15:37 12° 253° (WSW) 10:17:43 145.825 MHz
JAS-2 30 Jul 10:13:49 10:20:00 40° 329° (NNW) 10:25:31 435.800 - 435.900 CW/SSB, 435.910 FM
ITAMSAT 1 30 Jul 10:18:01 10:22:32 31° 29° (NNE) 10:27:04 435.822 SSB
UKube-1 30 Jul 10:30:22 10:34:45 65° 109° (ESE) 10:39:06 145.840 MHz, 145.915 MHz
KITSAT 1 30 Jul 10:33:12 10:41:17 72° 180° (S) 10:49:20 435.175 FM
Uribyol 2 30 Jul 10:36:49 10:41:29 34° 34° (NE) 10:46:08 436.500 FM
AO-27 30 Jul 10:37:20 10:42:00 34° 34° (NNE) 10:46:41 436.795 MHz FM
Saudisat 1A 30 Jul 10:42:07 10:46:20 43° 168° (SSE) 10:50:33 436.775 MHz
TMSAT-1 30 Jul 10:43:11 10:47:35 27° 21° (NNE) 10:51:59 436.925 FM
SO-67 30 Jul 10:50:40 10:53:11 19° 324° (NW) 10:55:43 435.3500 MHz FM
Oscar 19 30 Jul 11:03:54 11:08:51 51° 48° (NE) 11:13:51 437.125 CW, 437.150 USB
Gurwin Techsat 1B 30 Jul 11:07:55 11:12:36 32° 31° (NNE) 11:17:17 435.225 FM
AO-Echo 30 Jul 11:09:00 11:13:57 41° 42° (NE) 11:18:50 ?
Oscar 11 30 Jul 11:14:03 11:18:25 85° 113° (ESE) 11:22:47 145.825 FM, Beacon 2401.500 USB
HO-68 30 Jul 11:18:23 11:25:36 86° 303° (WNW) 11:32:47 435.675 MHz FM
Hamsat 30 Jul 11:21:36 11:24:14 16° 348° (NNW) 11:26:54 145.90 MHz
Uosat F 30 Jul 11:30:17 11:34:19 25° 16° (NNE) 11:38:21 435.120 FM
Oscar 16 30 Jul 11:32:22 11:37:28 66° 56° (NE) 11:42:36 437.025 USB, Beacon 2401.1428
RS-15 30 Jul 11:38:06 11:44:38 18° 94° (E) 11:51:09 29.354 - 29.394 USB, Beacon 29.352 USB
FUNcube-1 30 Jul 11:39:34 11:43:46 73° 109° (ESE) 11:47:57 145.950 - 145.970 MHz USB
JAS-1B 30 Jul 11:45:00 11:54:35 63° 42° (NE) 12:04:09 435.800 - 435.900 CW/SSB
ITAMSAT 1 30 Jul 11:56:19 12:01:27 60° 52° (NE) 12:06:35 435.822 SSB
JAS-2 30 Jul 11:58:04 12:03:54 30° 355° (N) 12:09:11 435.800 - 435.900 CW/SSB, 435.910 FM
AO-7 30 Jul 11:59:18 12:07:18 52° 20° (NNE) 12:15:17 29.400 - 29.500 MHz
UKube-1 30 Jul 12:06:45 12:10:56 45° 311° (NW) 12:15:06 145.840 MHz, 145.915 MHz
Uribyol 2 30 Jul 12:15:20 12:20:31 72° 57° (ENE) 12:25:42 436.500 FM
AO-27 30 Jul 12:15:52 12:21:04 71° 57° (ENE) 12:26:17 436.795 MHz FM
Saudisat 1A 30 Jul 12:21:15 12:25:28 43° 192° (SSW) 12:29:41 436.775 MHz
TMSAT-1 30 Jul 12:21:39 12:26:42 46° 45° (NE) 12:31:46 436.925 FM
SO-67 30 Jul 12:24:08 12:25:14 11° 346° (NNW) 12:26:19 435.3500 MHz FM
SO-50 30 Jul 12:27:20 12:29:42 14° 124° (SE) 12:32:06 436.795 FM
KITSAT 1 30 Jul 12:28:21 12:36:16 60° 208° (SSW) 12:44:10 435.175 FM
Oscar 19 30 Jul 12:43:05 12:48:13 67° 252° (WSW) 12:53:23 437.125 CW, 437.150 USB
Gurwin Techsat 1B 30 Jul 12:46:45 12:52:01 64° 54° (NE) 12:57:18 435.225 FM
AO-Echo 30 Jul 12:47:07 12:52:28 90° 64° (ENE) 12:57:46 ?
Oscar 11 30 Jul 12:50:25 12:54:24 36° 315° (NW) 12:58:22 145.825 FM, Beacon 2401.500 USB
Hamsat 30 Jul 12:56:21 12:58:58 16° 11° (NNE) 13:01:36 145.90 MHz
HO-68 30 Jul 13:06:09 13:13:00 50° 329° (NNW) 13:19:49 435.675 MHz FM
Uosat F 30 Jul 13:07:33 13:12:14 39° 40° (NE) 13:16:55 435.120 FM
Oscar 16 30 Jul 13:12:07 13:17:06 49° 259° (WSW) 13:22:08 437.025 USB, Beacon 2401.1428
FUNcube-1 30 Jul 13:16:11 13:20:04 39° 312° (NW) 13:23:58 145.950 - 145.970 MHz USB
JAS-1B 30 Jul 13:35:09 13:44:54 81° 248° (WSW) 13:54:51 435.800 - 435.900 CW/SSB
ITAMSAT 1 30 Jul 13:35:59 13:41:07 56° 255° (WSW) 13:46:17 435.822 SSB
JAS-2 30 Jul 13:41:28 13:47:42 34° 20° (NNE) 13:53:20 435.800 - 435.900 CW/SSB, 435.910 FM
UKube-1 30 Jul 13:43:01 13:46:28 23° 334° (NNW) 13:49:54 145.840 MHz, 145.915 MHz
RS-15 30 Jul 13:43:56 13:53:39 39° 124° (ESE) 14:03:22 29.354 - 29.394 USB, Beacon 29.352 USB
AO-7 30 Jul 13:51:14 13:59:36 78° 47° (NE) 14:07:59 29.400 - 29.500 MHz
Uribyol 2 30 Jul 13:55:23 14:00:22 45° 260° (W) 14:05:22 436.500 FM
AO-27 30 Jul 13:55:55 14:00:57 45° 260° (W) 14:05:59 436.795 MHz FM
SO-67 30 Jul 13:56:17 13:57:04 11° 9° (N) 13:57:51 435.3500 MHz FM
Saudisat 1A 30 Jul 14:00:39 14:04:25 28° 215° (SW) 14:08:10 436.775 MHz
TMSAT-1 30 Jul 14:01:11 14:06:31 78° 248° (WSW) 14:11:53 436.925 FM
SO-50 30 Jul 14:05:07 14:09:06 30° 147° (SSE) 14:13:11 436.795 FM
UOSAT-12 30 Jul 14:19:24 14:21:56 15° 124° (SE) 14:24:29 437.025 FM, 437.400 FM
KITSAT 1 30 Jul 14:23:28 14:30:35 36° 234° (SW) 14:37:41 435.175 FM
Oscar 19 30 Jul 14:24:19 14:28:30 25° 275° (W) 14:32:43 437.125 CW, 437.150 USB
Oscar 11 30 Jul 14:26:38 14:29:45 20° 338° (NNW) 14:32:53 145.825 FM, Beacon 2401.500 USB
AO-Echo 30 Jul 14:26:59 14:31:50 35° 268° (W) 14:36:40 ?
Gurwin Techsat 1B 30 Jul 14:27:01 14:32:14 52° 258° (WSW) 14:37:28 435.225 FM
Hamsat 30 Jul 14:30:26 14:33:53 25° 35° (NE) 14:37:22 145.90 MHz
Uosat F 30 Jul 14:45:41 14:50:46 88° 63° (ENE) 14:55:51 435.120 FM
FUNcube-1 30 Jul 14:52:41 14:55:44 20° 335° (NNW) 14:58:45 145.950 - 145.970 MHz USB
HO-68 30 Jul 14:53:17 14:59:45 39° 354° (N) 15:06:13 435.675 MHz FM
Oscar 16 30 Jul 14:54:14 14:57:43 18° 282° (WNW) 15:01:14 437.025 USB, Beacon 2401.1428
ITAMSAT 1 30 Jul 15:17:51 15:21:45 21° 279° (W) 15:25:39 435.822 SSB
UKube-1 30 Jul 15:18:39 15:21:35 18° 358° (N) 15:24:31 145.840 MHz, 145.915 MHz
JAS-2 30 Jul 15:24:50 15:31:54 53° 45° (NE) 15:38:13 435.800 - 435.900 CW/SSB, 435.910 FM
SO-67 30 Jul 15:26:47 15:29:02 16° 32° (NNE) 15:31:18 435.3500 MHz FM
JAS-1B 30 Jul 15:27:29 15:36:37 44° 274° (W) 15:45:58 435.800 - 435.900 CW/SSB
OPAL 30 Jul 15:28:56 15:32:31 19° 85° (E) 15:36:07 ?
Uribyol 2 30 Jul 15:37:55 15:41:12 17° 284° (WNW) 15:44:30 436.500 FM
AO-27 30 Jul 15:38:26 15:41:49 17° 284° (WNW) 15:45:11 436.795 MHz FM
Saudisat 1A 30 Jul 15:41:01 15:42:50 12° 237° (WSW) 15:44:39 436.775 MHz
TMSAT-1 30 Jul 15:42:39 15:47:15 29° 272° (W) 15:51:53 436.925 FM
SO-50 30 Jul 15:44:39 15:49:03 46° 170° (S) 15:53:33 436.795 FM
AO-7 30 Jul 15:44:40 15:52:56 58° 253° (WSW) 16:01:12 29.400 - 29.500 MHz
RS-15 30 Jul 15:53:40 16:04:20 63° 154° (SSE) 16:15:05 29.354 - 29.394 USB, Beacon 29.352 USB
UOSAT-12 30 Jul 15:56:50 16:00:57 31° 147° (SSE) 16:05:06 437.025 FM, 437.400 FM
Oscar 11 30 Jul 16:02:05 16:04:46 16° 2° (N) 16:07:28 145.825 FM, Beacon 2401.500 USB
Hamsat 30 Jul 16:05:10 16:09:19 57° 57° (ENE) 16:13:31 145.90 MHz
Gurwin Techsat 1B 30 Jul 16:09:35 16:13:26 20° 281° (WNW) 16:17:17 435.225 FM
AO-Echo 30 Jul 16:09:45 16:12:13 13° 291° (WNW) 16:14:41 ?
KITSAT 1 30 Jul 16:19:17 16:23:46 16° 260° (W) 16:28:14 435.175 FM
Uosat F 30 Jul 16:25:32 16:30:08 34° 266° (W) 16:34:45 435.120 FM
FUNcube-1 30 Jul 16:28:33 16:30:59 15° 358° (N) 16:33:25 145.950 - 145.970 MHz USB
HO-68 30 Jul 16:39:45 16:46:23 43° 20° (NNE) 16:53:01 435.675 MHz FM
UKube-1 30 Jul 16:53:23 16:56:41 21° 21° (NNE) 16:59:59 145.840 MHz, 145.915 MHz
SO-67 30 Jul 16:58:10 17:01:26 38° 54° (NE) 17:04:44 435.3500 MHz FM
OPAL 30 Jul 17:07:36 17:12:32 52° 108° (ESE) 17:17:31 ?
JAS-2 30 Jul 17:09:22 17:16:52 81° 248° (WSW) 17:23:32 435.800 - 435.900 CW/SSB, 435.910 FM
JAS-1B 30 Jul 17:22:44 17:29:59 23° 301° (WNW) 17:37:19 435.800 - 435.900 CW/SSB
SO-50 30 Jul 17:24:45 17:29:10 44° 194° (SSW) 17:33:40 436.795 FM
TMSAT-1 30 Jul 17:27:50 17:29:04 11° 296° (WNW) 17:30:18 436.925 FM
UOSAT-12 30 Jul 17:35:58 17:40:29 46° 170° (S) 17:45:02 437.025 FM, 437.400 FM
Oscar 11 30 Jul 17:36:35 17:39:49 21° 25° (NNE) 17:43:04 145.825 FM, Beacon 2401.500 USB
AO-7 30 Jul 17:40:44 17:47:38 27° 280° (W) 17:54:32 29.400 - 29.500 MHz
Hamsat 30 Jul 17:41:24 17:45:28 46° 260° (W) 17:49:36 145.90 MHz
STRAND 1 30 Jul 17:54:32 17:58:13 19° 80° (E) 18:01:52 ?
FUNcube-1 30 Jul 18:03:18 18:06:14 19° 22° (NNE) 18:09:09 145.950 - 145.970 MHz USB
RS-15 30 Jul 18:05:08 18:15:57 71° 184° (S) 18:26:56 29.354 - 29.394 USB, Beacon 29.352 USB
Uosat F 30 Jul 18:08:23 18:10:31 13° 290° (WNW) 18:12:38 435.120 FM
HO-68 30 Jul 18:26:21 18:33:27 66° 46° (NE) 18:40:32 435.675 MHz FM
UKube-1 30 Jul 18:28:03 18:32:06 38° 44° (NE) 18:36:10 145.840 MHz, 145.915 MHz
SO-67 30 Jul 18:31:03 18:34:29 56° 255° (WSW) 18:37:57 435.3500 MHz FM
OPAL 30 Jul 18:46:41 18:51:40 65° 311° (NW) 18:56:42 ?
JAS-2 30 Jul 18:56:00 19:02:46 37° 271° (W) 19:08:57 435.800 - 435.900 CW/SSB, 435.910 FM
SO-50 30 Jul 19:05:06 19:09:03 28° 217° (SW) 19:13:04 436.795 FM
Oscar 11 30 Jul 19:11:12 19:15:14 40° 48° (NE) 19:19:19 145.825 FM, Beacon 2401.500 USB
UOSAT-12 30 Jul 19:15:41 19:20:12 45° 193° (SSW) 19:24:43 437.025 FM, 437.400 FM
Hamsat 30 Jul 19:20:04 19:22:32 15° 283° (WNW) 19:25:00 145.90 MHz
JAS-1B 30 Jul 19:21:29 19:25:03 12° 332° (NNW) 19:28:36 435.800 - 435.900 CW/SSB
STRAND 1 30 Jul 19:33:32 19:38:35 53° 103° (ESE) 19:43:35 ?
FUNcube-1 30 Jul 19:37:59 19:41:49 34° 45° (NE) 19:45:37 145.950 - 145.970 MHz USB
AO-7 30 Jul 19:41:20 19:44:01 12° 309° (NW) 19:46:42 29.400 - 29.500 MHz
UKube-1 30 Jul 20:03:43 20:08:08 83° 246° (WSW) 20:12:33 145.840 MHz, 145.915 MHz
SO-67 30 Jul 20:06:11 20:08:19 15° 278° (W) 20:10:28 435.3500 MHz FM
HO-68 30 Jul 20:14:14 20:21:22 65° 251° (WSW) 20:28:32 435.675 MHz FM
RS-15 30 Jul 20:16:55 20:27:25 57° 215° (SW) 20:38:08 29.354 - 29.394 USB, Beacon 29.352 USB
OPAL 30 Jul 20:25:35 20:30:05 34° 334° (NNW) 20:34:37 ?
JAS-2 30 Jul 20:45:40 20:49:53 16° 296° (WNW) 20:53:53 435.800 - 435.900 CW/SSB, 435.910 FM
SO-50 30 Jul 20:46:30 20:48:23 12° 239° (WSW) 20:50:17 436.795 FM
Oscar 11 30 Jul 20:47:00 20:51:19 73° 250° (WSW) 20:55:41 145.825 FM, Beacon 2401.500 USB
UOSAT-12 30 Jul 20:55:38 20:59:40 28° 217° (SW) 21:03:42 437.025 FM, 437.400 FM
STRAND 1 30 Jul 21:12:55 21:18:00 62° 307° (NW) 21:23:02 ?
FUNcube-1 30 Jul 21:13:46 21:18:01 85° 247° (WSW) 21:22:14 145.950 - 145.970 MHz USB
MaSat-1 30 Jul 21:20:39 21:24:38 27° 120° (ESE) 21:28:55 437.345 MHz
UKube-1 30 Jul 21:41:13 21:44:58 27° 269° (W) 21:48:43 145.840 MHz, 145.915 MHz
OPAL 30 Jul 22:03:57 22:08:05 27° 357° (N) 22:12:15 ?
HO-68 30 Jul 22:04:24 22:10:29 29° 276° (W) 22:16:35 435.675 MHz FM
Oscar 11 30 Jul 22:24:45 22:28:14 23° 273° (W) 22:31:45 145.825 FM, Beacon 2401.500 USB
RS-15 30 Jul 22:28:35 22:37:43 33° 245° (WSW) 22:47:04 29.354 - 29.394 USB, Beacon 29.352 USB
UOSAT-12 30 Jul 22:36:33 22:38:35 13° 239° (WSW) 22:40:38 437.025 FM, 437.400 FM
FUNcube-1 30 Jul 22:51:26 22:55:01 26° 270° (W) 22:58:36 145.950 - 145.970 MHz USB
STRAND 1 30 Jul 22:52:09 22:56:38 31° 330° (NNW) 23:01:06 ?
MaSat-1 30 Jul 22:56:31 23:01:16 58° 144° (SE) 23:06:26 437.345 MHz
JAS-1B 30 Jul 23:12:28 23:17:15 14° 37° (NE) 23:21:52 435.800 - 435.900 CW/SSB
PCSat 30 Jul 23:27:55 23:29:32 11° 105° (ESE) 23:31:09 145.825 MHz
OPAL 30 Jul 23:41:40 23:46:01 31° 21° (NNE) 23:50:26 ?
HO-68 30 Jul 23:58:29 00:00:59 12° 303° (WNW) 00:03:29 435.675 MHz FM
STRAND 1 31 Jul 00:30:48 00:34:46 23° 354° (N) 00:38:44 ?
MaSat-1 31 Jul 00:33:32 00:38:32 87° 168° (SSE) 00:43:53 437.345 MHz
Sapphire 31 Jul 00:34:36 00:38:36 21° 120° (ESE) 00:42:36 437.095 MHz 1200 baud AX-25 AFSK
Oscar 19 31 Jul 00:39:56 00:43:37 19° 79° (E) 00:47:18 437.125 CW, 437.150 USB
AO-Echo 31 Jul 00:40:26 00:43:03 14° 70° (ENE) 00:45:38 ?
RS-15 31 Jul 00:41:31 00:46:13 14° 274° (W) 00:50:58 29.354 - 29.394 USB, Beacon 29.352 USB
JAS-1B 31 Jul 01:03:48 01:11:51 28° 67° (ENE) 01:19:16 435.800 - 435.900 CW/SSB
PCSat 31 Jul 01:06:49 01:11:24 29° 129° (SE) 01:15:59 145.825 MHz
Oscar 16 31 Jul 01:08:36 01:12:55 26° 86° (E) 01:17:13 437.025 USB, Beacon 2401.1428
OPAL 31 Jul 01:19:28 01:24:20 55° 45° (NE) 01:29:14 ?
Oscar 10/S400 31 Jul 01:23:05 01:59:32 26° 184° (S) 05:19:58 145.825 - 145.975 CW/USB, Beacon 145.810 USB
ITAMSAT 1 31 Jul 01:33:55 01:38:00 23° 83° (E) 01:42:03 435.822 SSB
AO-7 31 Jul 01:36:49 01:39:18 11° 50° (NE) 01:41:47 29.400 - 29.500 MHz
Uribyol 2 31 Jul 01:52:47 01:57:14 28° 88° (E) 02:01:40 436.500 FM
AO-27 31 Jul 01:53:40 01:58:08 28° 88° (E) 02:02:34 436.795 MHz FM
TMSAT-1 31 Jul 02:02:21 02:05:58 18° 76° (ENE) 02:09:35 436.925 FM
STRAND 1 31 Jul 02:08:39 02:12:49 26° 18° (NNE) 02:16:58 ?
MaSat-1 31 Jul 02:10:54 02:16:02 88° 192° (SSW) 02:21:23 437.345 MHz
Sapphire 31 Jul 02:15:53 02:21:01 44° 144° (SE) 02:26:10 437.095 MHz 1200 baud AX-25 AFSK
AO-Echo 31 Jul 02:18:33 02:23:24 37° 94° (E) 02:28:04 ?
Oscar 19 31 Jul 02:19:06 02:24:10 52° 103° (ESE) 02:29:14 437.125 CW, 437.150 USB
Gurwin Techsat 1B 31 Jul 02:27:59 02:32:30 27° 86° (E) 02:37:00 435.225 FM
Uosat F 31 Jul 02:39:52 02:41:38 12° 69° (ENE) 02:43:24 435.120 FM
Oscar 16 31 Jul 02:47:58 02:53:09 71° 110° (ESE) 02:58:20 437.025 USB, Beacon 2401.1428
PCSat 31 Jul 02:48:47 02:54:04 54° 153° (SSE) 02:59:22 145.825 MHz
JAS-1B 31 Jul 02:55:03 03:04:44 55° 95° (E) 03:13:24 435.800 - 435.900 CW/SSB
OPAL 31 Jul 02:58:22 03:03:18 63° 248° (WSW) 03:08:18 ?
ITAMSAT 1 31 Jul 03:13:21 03:18:32 61° 107° (ESE) 03:23:41 435.822 SSB
AO-7 31 Jul 03:28:52 03:35:44 27° 80° (E) 03:42:32 29.400 - 29.500 MHz
Uribyol 2 31 Jul 03:32:19 03:37:32 76° 112° (ESE) 03:42:43 436.500 FM
AO-27 31 Jul 03:33:14 03:38:29 75° 112° (ESE) 03:43:41 436.795 MHz FM
TMSAT-1 31 Jul 03:42:03 03:47:13 48° 100° (E) 03:52:21 436.925 FM
STRAND 1 31 Jul 03:46:20 03:51:09 42° 42° (NE) 03:55:58 ?
MaSat-1 31 Jul 03:48:13 03:53:20 59° 215° (SW) 03:58:33 437.345 MHz
AO-Echo 31 Jul 03:57:27 04:02:42 83° 298° (WNW) 04:07:46 ?
Oscar 19 31 Jul 03:58:38 04:03:45 63° 306° (NW) 04:08:52 437.125 CW, 437.150 USB
Sapphire 31 Jul 03:58:40 04:04:03 67° 168° (SSE) 04:09:28 437.095 MHz 1200 baud AX-25 AFSK
JAS-2 31 Jul 04:04:14 04:06:37 12° 56° (NE) 04:08:54 435.800 - 435.900 CW/SSB, 435.910 FM
Gurwin Techsat 1B 31 Jul 04:08:01 04:13:22 72° 110° (ESE) 04:18:42 435.225 FM
Uosat F 31 Jul 04:17:32 04:22:05 32° 93° (E) 04:26:36 435.120 FM
Oscar 16 31 Jul 04:27:31 04:32:29 49° 313° (NW) 04:37:27 437.025 USB, Beacon 2401.1428
PCSat 31 Jul 04:31:49 04:37:14 71° 177° (S) 04:42:40 145.825 MHz
OPAL 31 Jul 04:39:15 04:43:10 23° 271° (W) 04:47:07 ?
JAS-1B 31 Jul 04:46:00 04:55:58 84° 302° (WNW) 05:04:56 435.800 - 435.900 CW/SSB
ITAMSAT 1 31 Jul 04:53:02 04:58:08 55° 310° (NW) 05:03:11 435.822 SSB
KITSAT 1 31 Jul 05:08:34 05:14:09 21° 107° (ESE) 05:19:43 435.175 FM
Uribyol 2 31 Jul 05:11:59 05:16:56 47° 315° (NW) 05:21:52 436.500 FM
Hamsat 31 Jul 05:12:37 05:15:35 18° 81° (E) 05:18:33 145.90 MHz
AO-27 31 Jul 05:12:56 05:17:55 47° 315° (NW) 05:22:53 436.795 MHz FM
TMSAT-1 31 Jul 05:22:09 05:27:27 68° 304° (WNW) 05:32:43 436.925 FM
AO-7 31 Jul 05:22:12 05:30:28 58° 107° (ESE) 05:38:39 29.400 - 29.500 MHz
STRAND 1 31 Jul 05:24:58 05:30:09 86° 245° (WSW) 05:35:20 ?
MaSat-1 31 Jul 05:25:35 05:30:05 29° 237° (WSW) 05:34:35 437.345 MHz
AO-Echo 31 Jul 05:36:20 05:41:08 38° 321° (NW) 05:45:47 ?
Oscar 19 31 Jul 05:38:02 05:42:33 32° 329° (NNW) 05:47:04 437.125 CW, 437.150 USB
Sapphire 31 Jul 05:41:55 05:47:20 67° 193° (SSW) 05:52:44 437.095 MHz 1200 baud AX-25 AFSK
Gurwin Techsat 1B 31 Jul 05:48:10 05:53:18 49° 313° (NW) 05:58:25 435.225 FM
JAS-2 31 Jul 05:48:33 05:54:11 30° 83° (E) 05:59:14 435.800 - 435.900 CW/SSB, 435.910 FM
Uosat F 31 Jul 05:56:25 06:01:31 88° 116° (ESE) 06:06:34 435.120 FM
Oscar 16 31 Jul 06:06:48 06:11:06 27° 336° (NNW) 06:15:25 437.025 USB, Beacon 2401.1428
PCSat 31 Jul 06:15:06 06:20:28 60° 202° (SSW) 06:25:49 145.825 MHz
ITAMSAT 1 31 Jul 06:32:31 06:36:59 30° 334° (NNW) 06:41:25 435.822 SSB
JAS-1B 31 Jul 06:36:23 06:45:54 54° 328° (NNW) 06:54:41 435.800 - 435.900 CW/SSB
Hamsat 31 Jul 06:48:14 06:52:29 55° 103° (ESE) 06:56:44 145.90 MHz
Uribyol 2 31 Jul 06:51:20 06:55:38 27° 339° (NNW) 06:59:55 436.500 FM
AO-27 31 Jul 06:52:19 06:56:40 27° 339° (NNW) 07:01:00 436.795 MHz FM
KITSAT 1 31 Jul 07:00:14 07:07:41 42° 133° (SE) 07:15:08 435.175 FM
TMSAT-1 31 Jul 07:02:09 07:06:53 34° 327° (NNW) 07:11:36 436.925 FM
MaSat-1 31 Jul 07:04:18 07:06:01 12° 260° (W) 07:07:44 437.345 MHz
STRAND 1 31 Jul 07:05:23 07:10:00 32° 268° (W) 07:14:37 ?
SO-67 31 Jul 07:13:55 07:16:58 27° 93° (E) 07:20:00 435.3500 MHz FM
AO-Echo 31 Jul 07:14:48 07:18:56 24° 345° (NNW) 07:22:59 ?
AO-7 31 Jul 07:15:25 07:23:48 78° 313° (NW) 07:32:08 29.400 - 29.500 MHz
Oscar 19 31 Jul 07:16:52 07:20:50 23° 353° (N) 07:24:49 437.125 CW, 437.150 USB
Sapphire 31 Jul 07:25:14 07:30:21 43° 217° (SW) 07:35:27 437.095 MHz 1200 baud AX-25 AFSK
HO-68 31 Jul 07:25:39 07:30:09 17° 68° (ENE) 07:34:38 435.675 MHz FM
Gurwin Techsat 1B 31 Jul 07:28:03 07:32:31 28° 337° (NNW) 07:36:59 435.225 FM
JAS-2 31 Jul 07:33:50 07:40:24 75° 110° (ESE) 07:46:10 435.800 - 435.900 CW/SSB, 435.910 FM
Uosat F 31 Jul 07:35:22 07:40:05 41° 319° (NW) 07:44:46 435.120 FM
Saudisat 1A 31 Jul 07:38:17 07:41:00 16° 129° (SE) 07:43:44 436.775 MHz
Oscar 16 31 Jul 07:45:24 07:49:20 23° 0° (N) 07:53:16 437.025 USB, Beacon 2401.1428
PCSat 31 Jul 07:58:26 08:03:17 34° 226° (SW) 08:08:07 145.825 MHz
ITAMSAT 1 31 Jul 08:11:21 08:15:23 23° 358° (N) 08:19:25 435.822 SSB
Oscar 11 31 Jul 08:21:26 08:22:47 11° 71° (ENE) 08:24:09 145.825 FM, Beacon 2401.500 USB
Hamsat 31 Jul 08:24:22 08:28:31 50° 306° (NW) 08:32:42 145.90 MHz
JAS-1B 31 Jul 08:25:57 08:35:03 44° 355° (N) 08:43:42 435.800 - 435.900 CW/SSB
Uribyol 2 31 Jul 08:29:58 08:33:59 23° 3° (N) 08:37:59 436.500 FM
AO-27 31 Jul 08:31:00 08:35:03 23° 3° (N) 08:39:05 436.795 MHz FM
TMSAT-1 31 Jul 08:41:36 08:45:46 24° 351° (N) 08:49:55 436.925 FM
SO-67 31 Jul 08:46:54 08:50:25 76° 295° (WNW) 08:53:55 435.3500 MHz FM
STRAND 1 31 Jul 08:49:01 08:50:53 12° 292° (WNW) 08:52:44 ?
AO-Echo 31 Jul 08:52:27 08:56:29 23° 9° (N) 09:00:28 ?
KITSAT 1 31 Jul 08:54:15 09:02:15 65° 160° (SSE) 09:10:14 435.175 FM
Oscar 19 31 Jul 08:54:53 08:59:00 25° 17° (NNE) 09:03:09 437.125 CW, 437.150 USB
Gurwin Techsat 1B 31 Jul 09:07:12 09:11:20 24° 1° (N) 09:15:27 435.225 FM
AO-7 31 Jul 09:08:07 09:16:07 53° 339° (NNW) 09:24:06 29.400 - 29.500 MHz
Sapphire 31 Jul 09:08:50 09:12:44 20° 241° (WSW) 09:16:37 437.095 MHz 1200 baud AX-25 AFSK
HO-68 31 Jul 09:13:22 09:20:04 40° 94° (E) 09:26:44 435.675 MHz FM
Uosat F 31 Jul 09:13:58 09:18:01 25° 343° (NNW) 09:22:04 435.120 FM
UKube-1 31 Jul 09:13:58 09:17:42 26° 91° (E) 09:21:24 145.840 MHz, 145.915 MHz
Saudisat 1A 31 Jul 09:15:38 09:19:36 33° 152° (SSE) 09:23:34 436.775 MHz
JAS-2 31 Jul 09:19:01 09:25:26 52° 316° (NW) 09:31:04 435.800 - 435.900 CW/SSB, 435.910 FM
Oscar 16 31 Jul 09:23:15 09:27:33 28° 25° (NNE) 09:31:53 437.025 USB, Beacon 2401.1428
